QPF
0.16 0.13 0.11 0.09 0.05 0.02 0.01 0.01 0.00 0.01 0.01 0.00 0.00 0.02 0.03 0.02 0.02 0.02 0.01 0.01 0.02 0.01 0.00 0.01 0.01 0.01 0.01 0.01 0.01 0.01 0.01 0.01 0.01 0.01 0.01 0.01 0.01 0.00 0.00 0.01 0.01 0.01 0.01
0.22 0.17 0.13 0.11 0.11 0.08 0.06 0.02 0.01 0.01 0.00 0.00 0.00 0.01 0.02 0.02 0.03 0.01 0.01 0.01 0.01 0.01 0.01 0.01 0.01 0.01 0.01 0.01 0.01 0.01 0.01 0.00 0.01 0.01 0.01 0.01 0.01 0.01 0.00 0.00 0.01 0.01 0.01
0.21 0.16 0.15 0.13 0.14 0.14 0.10 0.07 0.03 0.01 0.00 0.00 0.00 0.00 0.00 0.01 0.02 0.01 0.00 0.00 0.00 0.00 0.01 0.01 0.01 0.00 0.00 0.01 0.01 0.01 0.01 0.01 0.01 0.01 0.01 0.01 0.00 0.01 0.01 0.00 0.00 0.01 0.01
0.25 0.18 0.18 0.20 0.19 0.18 0.15 0.10 0.08 0.04 0.02 0.01 0.00 0.00 0.00 0.00 0.00 0.01 0.00 0.00 0.00 0.00 0.00 0.01 0.01 0.01 0.01 0.00 0.01 0.01 0.01 0.01 0.00 0.00 0.01 0.01 0.00 0.01 0.01 0.01 0.01 0.01 0.01
0.19 0.18 0.18 0.22 0.24 0.22 0.18 0.13 0.10 0.07 0.05 0.03 0.01 0.01 0.00 0.00 0.01 0.01 0.00 0.01 0.01 0.01 0.00 0.00 0.00 0.00 0.00 0.01 0.00 0.01 0.01 0.01 0.00 0.00 0.00 0.00 0.00 0.00 0.01 0.01 0.01 0.01 0.01
0.11 0.13 0.16 0.19 0.23 0.24 0.22 0.21 0.17 0.10 0.06 0.04 0.04 0.03 0.01 0.01 0.02 0.01 0.01 0.01 0.01 0.01 0.01 0.00 0.00 0.00 0.00 0.00 0.00 0.00 0.01 0.01 0.01 0.01 0.00 0.00 0.00 0.00 0.00 0.01 0.01 0.01 0.01
0.08 0.10 0.14 0.19 0.22 0.24 0.24 0.24 0.21 0.13 0.08 0.07 0.06 0.05 0.03 0.03 0.04 0.04 0.03 0.02 0.02 0.02 0.02 0.01 0.01 0.00 0.00 0.00 0.00 0.00 0.00 0.01 0.01 0.01 0.01 0.01 0.01 0.00 0.01 0.01 0.01 0.01 0.01
0.07 0.08 0.11 0.13 0.16 0.19 0.22 0.21 0.19 0.14 0.11 0.11 0.09 0.07 0.04 0.04 0.05 0.05 0.04 0.04 0.05 0.04 0.04 0.03 0.02 0.02 0.00 0.00 0.00 0.00 0.01 0.01 0.01 0.01 0.01 0.01 0.01 0.01 0.01 0.01 0.01 0.01 0.01
0.05 0.06 0.07 0.08 0.10 0.12 0.14 0.17 0.18 0.15 0.14 0.12 0.11 0.08 0.03 0.02 0.03 0.05 0.06 0.07 0.07 0.06 0.07 0.07 0.05 0.05 0.04 0.02 0.01 0.00 0.01 0.01 0.01 0.01 0.01 0.01 0.01 0.01 0.00 0.00 0.00 0.00 0.01
0.05 0.05 0.06 0.07 0.08 0.09 0.11 0.14 0.16 0.16 0.17 0.15 0.11 0.07 0.04 0.03 0.03 0.03 0.05 0.09 0.08 0.07 0.07 0.06 0.05 0.05 0.04 0.04 0.04 0.03 0.02 0.01 0.02 0.02 0.01 0.01 0.01 0.01 0.01 0.01 0.01 0.01 0.01
0.05 0.06 0.08 0.10 0.10 0.12 0.12 0.16 0.19 0.20 0.17 0.16 0.13 0.10 0.08 0.06 0.04 0.03 0.04 0.07 0.10 0.09 0.08 0.07 0.07 0.06 0.06 0.06 0.06 0.07 0.04 0.02 0.01 0.02 0.03 0.02 0.02 0.01 0.02 0.01 0.01 0.01 0.01
0.08 0.09 0.09 0.11 0.12 0.14 0.16 0.16 0.18 0.23 0.24 0.21 0.19 0.14 0.11 0.08 0.07 0.06 0.05 0.05 0.08 0.10 0.09 0.09 0.09 0.09 0.09 0.09 0.10 0.11 0.08 0.05 0.02 0.03 0.03 0.04 0.04 0.05 0.04 0.03 0.03 0.02 0.02
0.09 0.10 0.12 0.14 0.15 0.16 0.18 0.21 0.22 0.22 0.22 0.25 0.25 0.20 0.15 0.09 0.07 0.07 0.07 0.05 0.04 0.07 0.09 0.09 0.10 0.10 0.09 0.11 0.12 0.13 0.11 0.08 0.04 0.02 0.02 0.02 0.03 0.04 0.05 0.04 0.05 0.05 0.03
0.12 0.13 0.15 0.16 0.18 0.17 0.19 0.20 0.20 0.21 0.21 0.22 0.26 0.26 0.22 0.16 0.12 0.08 0.07 0.07 0.05 0.04 0.05 0.07 0.08 0.09 0.09 0.10 0.12 0.14 0.11 0.08 0.06 0.04 0.03 0.02 0.03 0.03 0.04 0.04 0.05 0.05 0.04
0.13 0.13 0.15 0.17 0.17 0.19 0.21 0.22 0.21 0.21 0.21 0.20 0.22 0.25 0.23 0.22 0.19 0.14 0.12 0.09 0.08 0.05 0.03 0.04 0.06 0.07 0.08 0.09 0.11 0.11 0.12 0.11 0.08 0.05 0.04 0.04 0.03 0.03 0.04 0.04 0.03 0.03 0.03
0.16 0.16 0.17 0.16 0.17 0.17 0.19 0.20 0.18 0.15 0.16 0.18 0.20 0.20 0.20 0.22 0.22 0.19 0.16 0.12 0.09 0.07 0.06 0.04 0.04 0.05 0.07 0.07 0.07 0.06 0.08 0.08 0.06 0.05 0.04 0.04 0.04 0.04 0.04 0.04 0.04 0.03 0.02
0.12 0.14 0.16 0.13 0.15 0.15 0.14 0.14 0.13 0.14 0.11 0.13 0.15 0.14 0.13 0.13 0.13 0.15 0.16 0.14 0.11 0.07 0.06 0.05 0.04 0.04 0.05 0.06 0.07 0.06 0.05 0.04 0.04 0.04 0.03 0.03 0.04 0.05 0.05 0.05 0.06 0.05 0.04
0.05 0.09 0.09 0.07 0.08 0.10 0.11 0.12 0.12 0.10 0.09 0.08 0.08 0.09 0.10 0.10 0.10 0.10 0.11 0.11 0.11 0.10 0.07 0.06 0.06 0.05 0.05 0.06 0.06 0.08 0.09 0.08 0.07 0.07 0.06 0.05 0.06 0.07 0.06 0.07 0.06 0.05 0.04
0.03 0.04 0.05 0.05 0.05 0.05 0.06 0.06 0.08 0.08 0.06 0.05 0.05 0.05 0.06 0.06 0.07 0.07 0.09 0.09 0.10 0.11 0.10 0.08 0.08 0.08 0.07 0.07 0.07 0.07 0.08 0.08 0.09 0.09 0.08 0.08 0.08 0.10 0.09 0.09 0.07 0.06 0.05
0.01 0.01 0.02 0.02 0.02 0.02 0.02 0.02 0.02 0.04 0.04 0.04 0.05 0.06 0.07 0.05 0.04 0.04 0.05 0.07 0.08 0.09 0.10 0.09 0.08 0.07 0.07 0.06 0.07 0.08 0.08 0.08 0.08 0.09 0.08 0.07 0.08 0.08 0.08 0.07 0.05 0.04 0.03
0.01 0.00 0.00 0.01 0.01 0.01 0.01 0.01 0.01 0.02 0.02 0.04 0.05 0.06 0.06 0.05 0.04 0.04 0.04 0.05 0.06 0.08 0.08 0.07 0.06 0.06 0.06 0.05 0.05 0.06 0.07 0.08 0.08 0.09 0.08 0.05 0.04 0.03 0.03 0.04 0.04 0.05 0.03
0.00 0.00 0.00 0.01 0.01 0.01 0.01 0.01 0.01 0.01 0.02 0.03 0.04 0.05 0.04 0.04 0.04 0.03 0.04 0.04 0.03 0.04 0.06 0.07 0.06 0.05 0.05 0.05 0.05 0.06 0.07 0.07 0.11 0.09 0.08 0.07 0.04 0.03 0.02 0.01 0.03 0.04 0.03
0.00 0.00 0.00 0.00 0.01 0.01 0.01 0.02 0.01 0.01 0.02 0.03 0.05 0.05 0.04 0.04 0.04 0.04 0.03 0.03 0.03 0.03 0.04 0.05 0.05 0.05 0.06 0.05 0.05 0.05 0.05 0.07 0.09 0.08 0.06 0.05 0.03 0.01 0.01 0.01 0.02 0.02 0.01
0.00 0.00 0.00 0.00 0.01 0.01 0.01 0.01 0.01 0.02 0.01 0.02 0.05 0.08 0.07 0.05 0.05 0.05 0.04 0.03 0.03 0.04 0.05 0.05 0.06 0.06 0.06 0.05 0.05 0.05 0.06 0.06 0.07 0.06 0.04 0.02 0.01 0.01 0.01 0.01 0.01 0.01 0.01
0.00 0.00 0.01 0.01 0.01 0.01 0.01 0.02 0.02 0.02 0.02 0.03 0.05 0.08 0.09 0.08 0.08 0.07 0.07 0.07 0.05 0.05 0.06 0.07 0.07 0.07 0.06 0.07 0.07 0.06 0.07 0.07 0.05 0.04 0.03 0.02 0.01 0.01 0.00 0.00 0.00 0.01 0.02
0.00 0.00 0.00 0.01 0.01 0.01 0.01 0.02 0.02 0.02 0.04 0.05 0.05 0.05 0.06 0.08 0.08 0.07 0.06 0.06 0.06 0.05 0.05 0.05 0.04 0.04 0.05 0.05 0.07 0.08 0.08 0.06 0.05 0.03 0.02 0.01 0.00 0.00 0.00 0.00 0.00 0.00 0.01
MSLP
1014.50 1014.59 1014.66 1014.74 1014.84 1014.98 1015.16 1015.36 1015.57 1015.75 1015.88 1015.96 1015.98 1015.97 1015.95 1015.95 1016.01 1016.12 1016.29 1016.51 1016.76 1017.00 1017.22 1017.41 1017.56 1017.67 1017.76 1017.84 1017.92 1018.01 1018.12 1018.25 1018.40 1018.57 1018.75 1018.96 1019.16 1019.36 1019.55 1019.72 1019.85 1019.94 1020.01
1014.06 1014.10 1014.16 1014.25 1014.38 1014.57 1014.79 1015.03 1015.26 1015.46 1015.59 1015.67 1015.69 1015.67 1015.66 1015.67 1015.73 1015.86 1016.06 1016.30 1016.56 1016.84 1017.09 1017.32 1017.51 1017.66 1017.80 1017.92 1018.03 1018.15 1018.28 1018.42 1018.57 1018.75 1018.94 1019.14 1019.34 1019.55 1019.74 1019.91 1020.05 1020.15 1020.22
1013.61 1013.62 1013.68 1013.80 1013.98 1014.21 1014.48 1014.76 1015.02 1015.22 1015.35 1015.41 1015.42 1015.40 1015.38 1015.39 1015.45 1015.59 1015.78 1016.03 1016.30 1016.59 1016.86 1017.12 1017.34 1017.54 1017.72 1017.88 1018.03 1018.19 1018.34 1018.50 1018.67 1018.84 1019.03 1019.23 1019.44 1019.64 1019.84 1020.02 1020.18 1020.30 1020.39
1013.17 1013.18 1013.26 1013.42 1013.65 1013.94 1014.26 1014.57 1014.84 1015.04 1015.16 1015.21 1015.20 1015.16 1015.13 1015.14 1015.20 1015.33 1015.52 1015.75 1016.02 1016.30 1016.57 1016.84 1017.08 1017.31 1017.52 1017.73 1017.93 1018.12 1018.31 1018.49 1018.67 1018.86 1019.04 1019.24 1019.44 1019.65 1019.85 1020.04 1020.22 1020.37 1020.48
1012.80 1012.81 1012.91 1013.11 1013.40 1013.74 1014.09 1014.42 1014.70 1014.90 1015.01 1015.04 1015.02 1014.97 1014.94 1014.94 1015.00 1015.12 1015.30 1015.51 1015.76 1016.01 1016.26 1016.52 1016.76 1017.01 1017.25 1017.49 1017.73 1017.97 1018.19 1018.40 1018.60 1018.79 1018.98 1019.17 1019.36 1019.56 1019.77 1019.97 1020.17 1020.34 1020.48
1012.50 1012.51 1012.64 1012.87 1013.19 1013.56 1013.94 1014.28 1014.56 1014.75 1014.85 1014.87 1014.85 1014.82 1014.80 1014.82 1014.88 1015.00 1015.16 1015.35 1015.56 1015.78 1015.99 1016.22 1016.45 1016.69 1016.94 1017.21 1017.48 1017.75 1018.02 1018.26 1018.48 1018.69 1018.87 1019.05 1019.24 1019.42 1019.62 1019.82 1020.03 1020.22 1020.39
1012.28 1012.27 1012.40 1012.64 1012.97 1013.35 1013.73 1014.07 1014.34 1014.53 1014.63 1014.67 1014.68 1014.68 1014.70 1014.75 1014.84 1014.97 1015.13 1015.30 1015.46 1015.63 1015.80 1015.97 1016.17 1016.39 1016.64 1016.91 1017.21 1017.52 1017.81 1018.09 1018.34 1018.55 1018.74 1018.92 1019.09 1019.26 1019.44 1019.63 1019.84 1020.04 1020.22
1012.11 1012.07 1012.17 1012.39 1012.69 1013.05 1013.41 1013.74 1014.00 1014.19 1014.31 1014.39 1014.45 1014.51 1014.59 1014.71 1014.85 1015.01 1015.17 1015.32 1015.46 1015.57 1015.68 1015.80 1015.94 1016.13 1016.36 1016.63 1016.94 1017.27 1017.59 1017.90 1018.17 1018.41 1018.61 1018.78 1018.94 1019.09 1019.26 1019.43 1019.63 1019.83 1020.02
1011.98 1011.87 1011.91 1012.06 1012.31 1012.62 1012.93 1013.23 1013.48 1013.68 1013.84 1013.98 1014.11 1014.27 1014.44 1014.64 1014.85 1015.06 1015.24 1015.39 1015.50 1015.57 1015.62 1015.68 1015.77 1015.91 1016.10 1016.36 1016.67 1017.01 1017.36 1017.69 1017.99 1018.25 1018.47 1018.65 1018.80 1018.94 1019.09 1019.25 1019.43 1019.62 1019.82
1011.85 1011.66 1011.60 1011.66 1011.82 1012.05 1012.30 1012.56 1012.80 1013.02 1013.22 1013.43 1013.66 1013.91 1014.19 1014.49 1014.78 1015.05 1015.27 1015.43 1015.52 1015.56 1015.58 1015.58 1015.62 1015.71 1015.87 1016.10 1016.40 1016.73 1017.10 1017.45 1017.78 1018.06 1018.30 1018.50 1018.66 1018.80 1018.94 1019.09 1019.26 1019.45 1019.64
1011.73 1011.43 1011.26 1011.21 1011.26 1011.39 1011.57 1011.77 1011.99 1012.22 1012.47 1012.75 1013.07 1013.42 1013.80 1014.20 1014.58 1014.91 1015.17 1015.36 1015.46 1015.50 1015.49 1015.47 1015.47 1015.52 1015.64 1015.84 1016.12 1016.44 1016.80 1017.17 1017.52 1017.83 1018.09 1018.31 1018.50 1018.65 1018.80 1018.96 1019.12 1019.31 1019.50
1011.64 1011.24 1010.95 1010.78 1010.71 1010.73 1010.82 1010.96 1011.15 1011.38 1011.66 1011.99 1012.37 1012.81 1013.27 1013.74 1014.19 1014.59 1014.91 1015.14 1015.28 1015.34 1015.34 1015.32 1015.31 1015.34 1015.43 1015.60 1015.85 1016.15 1016.50 1016.86 1017.21 1017.54 1017.83 1018.08 1018.30 1018.48 1018.65 1018.82 1019.00 1019.19 1019.40
1011.61 1011.12 1010.73 1010.44 1010.26 1010.17 1010.16 1010.23 1010.37 1010.57 1010.85 1011.20 1011.62 1012.10 1012.61 1013.14 1013.64 1014.10 1014.48 1014.76 1014.96 1015.07 1015.12 1015.13 1015.14 1015.17 1015.25 1015.40 1015.61 1015.88 1016.20 1016.54 1016.89 1017.22 1017.53 1017.81 1018.06 1018.28 1018.48 1018.68 1018.88 1019.09 1019.31
1011.68 1011.14 1010.66 1010.28 1009.99 1009.79 1009.69 1009.68 1009.75 1009.90 1010.15 1010.48 1010.89 1011.36 1011.88 1012.42 1012.96 1013.45 1013.89 1014.24 1014.52 1014.71 1014.84 1014.92 1014.98 1015.04 1015.14 1015.27 1015.45 1015.68 1015.95 1016.26 1016.58 1016.90 1017.22 1017.51 1017.79 1018.05 1018.29 1018.52 1018.75 1018.99 1019.22
1011.90 1011.32 1010.79 1010.34 1009.96 1009.68 1009.48 1009.38 1009.37 1009.45 1009.63 1009.90 1010.25 1010.68 1011.16 1011.68 1012.21 1012.73 1013.21 1013.64 1014.00 1014.30 1014.53 1014.71 1014.85 1014.97 1015.09 1015.23 1015.39 1015.58 1015.80 1016.06 1016.34 1016.64 1016.94 1017.24 1017.54 1017.82 1018.09 1018.35 1018.61 1018.87 1019.12
1012.26 1011.68 1011.13 1010.63 1010.19 1009.84 1009.56 1009.37 1009.27 1009.26 1009.34 1009.52 1009.78 1010.12 1010.53 1010.99 1011.49 1012.01 1012.52 1013.01 1013.46 1013.86 1014.22 1014.51 1014.75 1014.96 1015.13 1015.28 1015.43 1015.59 1015.78 1015.98 1016.22 1016.48 1016.75 1017.04 1017.34 1017.63 1017.92 1018.21 1018.48 1018.75 1019.02
1012.73 1012.17 1011.63 1011.11 1010.64 1010.24 1009.90 1009.63 1009.44 1009.34 1009.32 1009.38 1009.53 1009.76 1010.07 1010.45 1010.89 1011.37 1011.89 1012.42 1012.95 1013.45 1013.91 1014.32 1014.67 1014.96 1015.20 1015.39 1015.55 1015.70 1015.86 1016.03 1016.22 1016.45 1016.70 1016.96 1017.25 1017.54 1017.83 1018.11 1018.39 1018.67 1018.93
1013.24 1012.72 1012.20 1011.69 1011.22 1010.79 1010.41 1010.09 1009.83 1009.65 1009.53 1009.48 1009.51 1009.62 1009.82 1010.10 1010.45 1010.88 1011.38 1011.92 1012.49 1013.06 1013.61 1014.12 1014.56 1014.94 1015.25 1015.49 1015.69 1015.85 1016.01 1016.16 1016.34 1016.54 1016.77 1017.02 1017.29 1017.56 1017.84 1018.12 1018.38 1018.64 1018.89
1013.71 1013.23 1012.75 1012.27 1011.82 1011.39 1011.00 1010.65 1010.35 1010.10 1009.91 1009.78 1009.71 1009.71 1009.79 1009.96 1010.22 1010.58 1011.02 1011.54 1012.11 1012.70 1013.30 1013.86 1014.38 1014.83 1015.20 1015.51 1015.76 1015.97 1016.15 1016.34 1016.53 1016.74 1016.96 1017.21 1017.46 1017.73 1017.99 1018.24 1018.48 1018.71 1018.94
1014.09 1013.65 1013.21 1012.77 1012.34 1011.94 1011.57 1011.22 1010.91 1010.63 1010.40 1010.21 1010.06 1009.98 1009.97 1010.05 1010.21 1010.48 1010.84 1011.29 1011.81 1012.37 1012.96 1013.54 1014.09 1014.59 1015.02 1015.40 1015.72 1015.99 1016.24 1016.49 1016.73 1016.98 1017.24 1017.50 1017.76 1018.02 1018.26 1018.49 1018.70 1018.91 1019.10
1014.34 1013.93 1013.53 1013.13 1012.75 1012.39 1012.05 1011.73 1011.43 1011.16 1010.92 1010.70 1010.53 1010.39 1010.32 1010.31 1010.39 1010.56 1010.82 1011.17 1011.60 1012.10 1012.63 1013.18 1013.71 1014.23 1014.70 1015.13 1015.53 1015.89 1016.23 1016.57 1016.90 1017.22 1017.54 1017.85 1018.14 1018.41 1018.65 1018.86 1019.05 1019.22 1019.38
1014.48 1014.10 1013.73 1013.38 1013.04 1012.72 1012.42 1012.14 1011.88 1011.63 1011.41 1011.21 1011.03 1010.89 1010.78 1010.72 1010.72 1010.80 1010.96 1011.20 1011.52 1011.90 1012.34 1012.81 1013.30 1013.80 1014.28 1014.76 1015.22 1015.67 1016.12 1016.56 1017.00 1017.42 1017.83 1018.20 1018.54 1018.84 1019.10 1019.31 1019.48 1019.63 1019.77
1014.58 1014.22 1013.88 1013.55 1013.25 1012.96 1012.70 1012.46 1012.24 1012.04 1011.85 1011.69 1011.54 1011.40 1011.29 1011.21 1011.17 1011.18 1011.25 1011.38 1011.58 1011.84 1012.16 1012.53 1012.94 1013.39 1013.86 1014.36 1014.87 1015.40 1015.94 1016.49 1017.03 1017.56 1018.06 1018.52 1018.92 1019.27 1019.55 1019.78 1019.96 1020.10 1020.23
1014.72 1014.38 1014.06 1013.75 1013.46 1013.20 1012.95 1012.73 1012.54 1012.37 1012.23 1012.11 1012.00 1011.90 1011.82 1011.75 1011.70 1011.67 1011.67 1011.72 1011.81 1011.96 1012.16 1012.42 1012.74 1013.12 1013.56 1014.04 1014.58 1015.16 1015.77 1016.39 1017.03 1017.64 1018.22 1018.76 1019.23 1019.62 1019.95 1020.21 1020.41 1020.58 1020.71
1014.98 1014.66 1014.35 1014.05 1013.76 1013.49 1013.24 1013.02 1012.83 1012.68 1012.56 1012.48 1012.41 1012.36 1012.32 1012.28 1012.25 1012.21 1012.19 1012.18 1012.21 1012.27 1012.38 1012.55 1012.78 1013.09 1013.47 1013.92 1014.45 1015.03 1015.66 1016.33 1017.01 1017.68 1018.32 1018.91 1019.43 1019.88 1020.25 1020.55 1020.79 1020.99 1021.15
1015.40 1015.11 1014.81 1014.51 1014.20 1013.90 1013.62 1013.37 1013.16 1012.99 1012.88 1012.81 1012.77 1012.77 1012.77 1012.78 1012.78 1012.78 1012.76 1012.75 1012.75 1012.77 1012.82 1012.93 1013.09 1013.33 1013.65 1014.05 1014.53 1015.08 1015.70 1016.35 1017.03 1017.71 1018.36 1018.97 1019.52 1020.00 1020.42 1020.76 1021.05 1021.29 1021.50
Thickness
5756 5757 5757 5758 5759 5759 5758 5758 5757 5757 5758 5758 5759 5759 5759 5758 5758 5758 5757 5757 5757 5756 5755 5755 5754 5753 5752 5752 5751 5750 5749 5749 5748 5748 5747 5747 5746 5746 5745 5745 5744 5744 5743
5753 5754 5754 5754 5755 5756 5756 5756 5756 5756 5757 5758 5759 5760 5760 5759 5758 5757 5757 5757 5756 5756 5755 5754 5753 5752 5752 5751 5750 5749 5749 5748 5747 5746 5745 5745 5744 5744 5743 5743 5742 5742 5741
5750 5752 5752 5752 5753 5753 5753 5753 5754 5754 5755 5756 5757 5759 5760 5760 5758 5757 5756 5756 5755 5755 5754 5754 5753 5752 5751 5750 5750 5749 5748 5747 5746 5745 5744 5744 5743 5742 5741 5741 5740 5739 5739
5747 5748 5748 5749 5750 5750 5750 5750 5751 5751 5752 5753 5754 5757 5759 5759 5758 5756 5755 5755 5754 5754 5753 5753 5752 5751 5750 5750 5749 5748 5747 5746 5745 5744 5743 5742 5741 5740 5739 5739 5738 5737 5737
5742 5743 5744 5745 5746 5747 5747 5747 5747 5747 5748 5749 5751 5754 5756 5756 5755 5754 5753 5753 5753 5753 5752 5752 5751 5750 5749 5749 5748 5747 5746 5745 5744 5743 5742 5741 5740 5739 5738 5737 5736 5735 5734
5734 5736 5739 5741 5742 5742 5742 5742 5742 5743 5744 5745 5747 5748 5750 5752 5752 5752 5751 5751 5751 5751 5751 5750 5749 5749 5748 5747 5747 5746 5745 5744 5743 5741 5740 5739 5738 5737 5736 5735 5734 5733 5732
5727 5729 5732 5735 5736 5737 5738 5737 5737 5736 5738 5740 5738 5737 5741 5745 5746 5748 5748 5748 5748 5748 5748 5748 5747 5747 5746 5746 5745 5744 5743 5742 5741 5740 5739 5737 5736 5735 5734 5733 5732 5731 5730
5718 5722 5725 5728 5730 5731 5732 5732 5732 5731 5732 5734 5731 5726 5725 5729 5736 5743 5744 5744 5745 5746 5745 5745 5744 5744 5744 5743 5743 5741 5741 5740 5739 5738 5737 5735 5734 5733 5732 5730 5729 5728 5727
5709 5714 5718 5720 5723 5726 5727 5728 5728 5727 5725 5727 5729 5724 5718 5717 5724 5732 5737 5740 5741 5741 5742 5742 5741 5741 5741 5740 5740 5739 5738 5737 5736 5735 5734 5733 5732 5730 5729 5728 5726 5725 5724
5700 5705 5710 5713 5716 5719 5721 5723 5725 5725 5723 5720 5722 5724 5726 5725 5719 5719 5726 5732 5735 5736 5737 5739 5739 5738 5738 5737 5737 5736 5735 5734 5733 5732 5731 5730 5729 5728 5726 5724 5723 5722 5720
5692 5697 5702 5705 5709 5712 5715 5717 5719 5720 5720 5718 5717 5718 5718 5719 5721 5717 5715 5720 5725 5729 5732 5734 5735 5735 5735 5734 5734 5733 5732 5730 5729 5728 5727 5727 5725 5724 5723 5721 5720 5718 5717
5683 5688 5693 5698 5701 5705 5708 5711 5713 5714 5715 5715 5715 5714 5714 5713 5714 5714 5712 5713 5715 5720 5725 5728 5730 5731 5731 5731 5730 5729 5728 5726 5725 5724 5723 5722 5721 5720 5718 5717 5716 5714 5712
5674 5679 5685 5689 5693 5698 5701 5704 5706 5707 5709 5709 5710 5710 5711 5713 5714 5712 5710 5708 5709 5712 5717 5720 5724 5726 5727 5727 5727 5726 5724 5722 5720 5719 5718 5717 5716 5715 5713 5712 5711 5710 5708
5667 5672 5676 5681 5685 5689 5693 5696 5698 5700 5703 5704 5705 5706 5706 5708 5709 5709 5707 5704 5701 5702 5707 5711 5716 5720 5722 5722 5722 5722 5719 5717 5716 5714 5713 5712 5711 5710 5708 5707 5706 5704 5703
5661 5664 5668 5672 5676 5680 5684 5688 5690 5693 5696 5697 5699 5700 5701 5702 5703 5704 5704 5704 5699 5694 5696 5703 5707 5712 5714 5715 5716 5715 5714 5712 5710 5708 5707 5706 5704 5703 5702 5701 5700 5698 5697
5654 5657 5659 5663 5667 5671 5675 5679 5682 5685 5688 5690 5692 5693 5694 5696 5697 5698 5698 5698 5698 5696 5693 5697 5700 5704 5706 5708 5708 5708 5707 5705 5704 5702 5701 5700 5698 5697 5696 5695 5693 5692 5690
5647 5649 5652 5654 5658 5662 5666 5670 5674 5677 5679 5681 5683 5685 5687 5689 5690 5691 5692 5692 5692 5691 5688 5689 5693 5696 5698 5699 5699 5699 5699 5698 5697 5696 5694 5693 5692 5691 5689 5688 5686 5685 5683
5641 5642 5644 5647 5650 5654 5657 5661 5665 5669 5670 5672 5675 5677 5679 5682 5683 5684 5685 5685 5685 5685 5684 5682 5684 5687 5689 5690 5691 5691 5690 5690 5689 5688 5687 5686 5684 5683 5682 5681 5679 5677 5676
5635 5636 5638 5640 5643 5646 5650 5653 5657 5660 5662 5664 5667 5669 5671 5673 5674 5676 5677 5678 5678 5679 5678 5677 5677 5679 5679 5681 5681 5681 5681 5681 5680 5679 5678 5677 5676 5675 5674 5672 5671 5669 5668
5630 5631 5632 5634 5636 5640 5643 5646 5649 5651 5654 5657 5659 5661 5663 5665 5666 5668 5670 5671 5671 5671 5671 5671 5670 5670 5671 5672 5673 5671 5670 5671 5671 5670 5669 5668 5667 5666 5665 5664 5663 5661 5660
5626 5626 5626 5628 5631 5634 5637 5638 5641 5644 5646 5648 5651 5653 5656 5659 5661 5662 5663 5664 5665 5664 5664 5664 5663 5663 5663 5664 5664 5664 5662 5661 5661 5660 5659 5657 5657 5656 5654 5654 5653 5653 5652
5622 5622 5621 5622 5624 5627 5631 5633 5635 5636 5638 5640 5642 5645 5649 5652 5655 5657 5658 5660 5660 5659 5658 5658 5657 5657 5658 5659 5659 5658 5656 5655 5651 5651 5651 5646 5646 5645 5645 5645 5644 5644 5644
5619 5618 5617 5618 5619 5622 5626 5628 5629 5630 5631 5632 5634 5637 5641 5644 5647 5649 5651 5653 5654 5656 5657 5656 5654 5654 5654 5656 5655 5653 5651 5650 5647 5644 5643 5637 5635 5635 5635 5635 5635 5636 5636
5618 5616 5614 5614 5615 5618 5621 5622 5623 5623 5623 5625 5627 5630 5632 5635 5639 5641 5643 5644 5646 5648 5651 5652 5652 5652 5653 5653 5653 5651 5648 5643 5640 5637 5637 5631 5627 5625 5625 5626 5626 5627 5627
5618 5616 5614 5613 5612 5614 5617 5618 5617 5617 5617 5618 5620 5624 5626 5629 5632 5635 5636 5637 5638 5640 5643 5645 5647 5648 5648 5648 5647 5644 5640 5638 5632 5630 5630 5627 5621 5619 5618 5617 5618 5619 5619
5619 5617 5614 5612 5611 5610 5613 5614 5614 5613 5612 5613 5615 5618 5621 5624 5627 5629 5630 5631 5632 5632 5636 5638 5639 5640 5640 5641 5641 5641 5639 5634 5630 5626 5625 5623 5618 5616 5613 5611 5611 5612 5612